Theta_e
312 312 312 310 309 308 300 288 283 296 297 285 284 285 290 295 294 297 294 294 292 290 292 290 289 290 294 301 300 295 296 288 293 297 299 304 302 298 295 289 287 288 292 291
312 311 311 310 309 307 294 286 286 296 296 284 283 288 292 294 292 293 293 292 293 294 290 287 293 295 300 299 296 296 299 289 285 288 292 295 296 298 298 296 289 293 288 290
312 312 311 310 308 308 295 288 284 287 291 291 286 284 287 288 295 293 294 293 295 292 290 292 290 292 298 298 297 306 297 288 288 288 289 294 293 297 299 296 291 293 295 292
312 312 311 310 309 307 298 288 287 286 281 285 286 289 288 288 287 293 293 289 291 290 284 287 289 292 292 295 300 295 292 286 289 292 295 297 296 298 299 294 297 294 296 295
312 312 311 310 309 307 298 291 289 292 288 289 284 285 286 287 287 289 290 288 289 289 286 288 286 289 287 288 292 289 290 288 289 290 296 298 296 298 300 300 300 297 294 294
312 311 311 310 309 304 297 299 298 293 290 288 284 283 284 286 288 291 293 291 289 287 290 293 292 293 292 292 288 287 287 287 287 285 293 293 292 297 299 300 301 300 294 297
310 310 311 311 310 305 298 300 297 290 284 287 287 288 288 287 288 287 291 290 289 292 296 295 293 291 292 293 292 292 287 287 288 285 289 285 297 303 304 301 301 300 299 300
310 310 310 311 310 309 297 297 297 292 286 288 288 289 288 288 288 287 287 291 294 293 292 286 284 284 285 289 292 291 292 288 286 285 285 292 299 300 300 298 297 303 302 303
309 309 309 310 310 309 298 296 299 297 286 287 291 288 288 285 285 286 289 293 294 293 288 285 282 279 285 285 290 293 292 292 292 287 285 285 295 308 312 305 297 304 304 304
309 310 310 309 309 309 300 297 299 297 290 292 292 287 286 290 288 286 287 288 289 290 284 283 280 282 287 283 285 286 287 288 287 289 288 292 306 310 313 295 297 306 310 307
310 310 310 310 309 309 302 299 298 294 291 291 294 294 291 291 290 285 286 286 288 286 286 285 286 285 286 285 288 289 291 289 289 290 290 287 310 310 301 304 309 312 314 310
310 310 310 310 310 309 307 298 300 301 296 292 296 297 298 296 295 292 289 289 286 288 285 286 287 286 287 286 284 294 290 296 294 295 295 305 309 310 312 313 311 311 318 314
311 310 310 310 311 310 308 300 300 297 292 293 292 291 296 299 299 300 290 292 293 291 294 291 290 286 289 286 287 291 296 300 297 299 306 308 311 313 313 315 317 328 329 325
311 311 310 310 311 310 309 301 299 299 295 288 290 298 293 297 297 297 297 295 295 298 298 293 290 287 293 289 291 290 293 300 298 298 306 311 312 312 313 314 317 325 328 328
311 311 311 310 311 310 308 302 301 302 293 288 290 296 295 295 296 296 296 294 293 293 291 290 288 291 292 292 291 290 300 301 298 297 306 308 308 313 316 314 314 316 318 320
311 311 311 310 310 310 301 293 300 303 301 293 286 291 294 296 296 298 297 294 294 294 292 291 294 298 291 286 286 297 303 307 307 307 310 311 313 314 316 315 315 317 317 318
310 311 311 310 309 306 296 294 300 304 302 293 287 288 291 296 299 297 297 296 295 294 294 294 293 294 296 291 286 298 305 308 308 312 310 309 312 311 315 316 317 317 317 318
310 310 310 310 309 307 302 305 305 305 297 295 287 287 288 298 296 293 299 294 295 294 295 296 295 297 296 288 297 304 306 307 308 311 311 311 313 314 313 316 316 314 314 316
310 310 309 305 304 299 300 309 306 303 297 289 288 285 285 297 298 299 300 300 291 298 295 296 297 292 289 296 301 303 304 306 309 311 311 311 310 310 311 312 311 312 313 315
309 305 301 296 303 310 306 300 294 292 292 291 285 291 288 293 298 295 295 298 294 290 294 298 291 290 298 302 305 306 309 311 311 306 306 307 306 308 308 307 308 308 309 313
300 295 296 299 310 304 300 293 289 287 285 286 287 288 289 298 292 292 297 294 293 287 292 291 289 290 296 303 306 308 310 311 311 312 312 312 312 311 312 312 313 313 314 314
300 302 304 300 301 297 291 290 293 287 287 292 290 293 292 295 302 296 296 291 292 286 296 290 285 293 301 303 306 308 309 310 311 311 311 314 316 316 316 316 316 316 316 317
302 299 299 298 298 292 286 285 291 294 297 299 296 297 299 301 301 297 296 290 289 295 287 284 289 298 303 306 308 309 312 312 313 313 314 316 315 315 315 314 316 316 316 317
299 296 290 295 294 296 296 296 298 302 302 302 301 301 301 300 299 299 293 294 294 288 285 291 299 303 305 307 309 309 307 309 311 313 314 313 313 313 314 314 315 315 315 316
296 297 291 296 300 300 300 302 302 303 305 303 300 300 299 297 296 297 295 291 286 289 292 298 302 305 305 306 306 304 305 304 304 307 309 309 308 307 307 310 312 314 313 313
303 302 298 299 298 297 298 298 299 304 303 302 300 297 296 294 296 292 290 288 286 294 299 303 304 305 306 307 304 303 301 300 299 299 300 300 301 302 304 306 306 306 306 306
303 300 299 297 297 297 298 298 298 302 301 297 298 294 293 298 291 291 295 293 297 300 302 305 305 304 305 304 303 301 300 299 299 298 299 299 300 301 300 298 300 302 303 305
Wind_Speed
19 20 19 16 16 16 6 2 4 5 6 6 3 4 12 7 13 15 7 5 5 2 5 3 2 6 3 16 10 7 7 2 16 18 5 14 19 14 12 6 10 7 11 11
19 19 17 14 12 10 2 4 4 6 4 5 6 9 9 13 11 9 6 5 5 5 3 4 3 5 7 16 12 7 9 5 2 7 3 3 8 10 16 12 1 22 8 6
19 18 15 12 10 8 3 3 6 6 4 4 3 5 5 11 8 9 6 4 4 5 4 3 6 9 4 12 9 14 3 4 5 11 4 5 8 10 15 16 12 12 20 4
19 17 14 10 8 6 3 1 2 2 5 3 5 6 4 7 9 7 8 4 7 3 2 2 3 3 10 7 7 7 5 4 5 7 11 15 15 15 25 19 23 17 13 14
19 15 13 10 7 3 1 2 1 1 5 7 4 5 3 3 6 5 4 7 10 4 4 4 4 4 2 5 6 6 5 5 5 7 10 13 16 19 24 29 22 14 7 8
17 17 14 11 6 5 2 2 2 2 3 3 2 3 1 9 14 6 6 14 14 7 8 7 9 10 8 11 5 2 2 2 5 5 6 11 14 30 20 12 13 18 15 9
18 16 15 12 9 9 3 2 1 2 5 5 7 10 10 13 11 13 16 13 8 5 6 7 9 11 15 17 18 14 6 4 2 6 5 9 12 10 19 17 9 7 5 11
17 17 16 14 10 6 3 2 2 3 5 6 9 10 11 7 7 12 12 15 7 8 6 3 6 5 1 13 22 21 19 6 3 4 4 10 12 3 6 13 10 7 12 10
17 17 16 15 11 7 3 3 3 3 2 5 4 5 8 7 4 7 5 10 10 3 2 1 4 5 4 5 7 23 22 19 8 3 5 7 2 15 21 14 19 16 13 11
17 17 16 15 14 9 3 4 4 3 4 7 10 6 5 3 5 6 8 5 6 2 2 3 4 5 4 5 5 4 10 9 13 11 5 10 12 21 10 8 7 15 12 16
18 17 16 16 14 12 1 3 5 4 4 9 13 13 12 9 5 4 4 6 2 2 3 2 4 3 5 4 6 5 8 11 8 8 8 9 12 9 8 10 23 19 10 7
20 19 18 18 15 12 7 2 1 3 5 8 9 14 16 20 21 7 4 5 2 2 1 2 2 4 4 5 6 4 6 5 9 9 7 4 4 3 9 13 20 17 12 8
22 23 21 19 16 14 8 3 2 2 3 9 5 10 11 11 18 14 6 7 7 5 4 4 4 6 3 4 5 7 7 9 6 5 5 6 9 13 14 20 20 12 8 5
25 23 23 20 17 16 11 4 4 2 2 6 6 4 6 5 10 14 22 13 2 4 3 3 4 3 4 4 5 5 10 6 13 15 4 4 9 12 17 24 16 10 14 16
26 24 23 20 17 14 7 4 6 7 5 4 8 13 7 1 8 16 16 15 14 7 3 4 4 4 4 3 5 11 9 7 8 10 6 4 5 7 15 18 10 11 16 18
26 24 21 17 14 9 1 3 1 6 5 3 5 5 6 4 6 9 8 13 8 6 5 4 4 4 4 5 5 8 10 8 5 5 3 16 8 10 14 11 4 11 15 14
27 23 17 12 10 4 3 4 3 6 3 1 4 5 5 3 4 2 2 9 5 5 4 4 4 6 6 5 5 12 9 4 6 4 7 10 5 8 11 9 4 12 15 14
29 24 19 7 5 4 4 5 10 5 2 2 3 5 5 1 3 1 2 4 4 4 4 4 3 2 3 6 14 7 7 5 7 3 4 13 10 6 10 9 5 15 13 11
29 17 9 5 2 2 2 8 7 3 1 2 2 2 3 5 1 3 4 2 0 3 3 2 1 2 5 9 8 12 10 5 9 8 6 12 10 10 7 7 9 12 8 9
21 1 1 2 0 12 11 2 2 2 2 1 3 2 4 1 0 1 2 1 2 2 1 1 1 4 10 11 9 10 7 8 12 14 9 10 10 9 7 7 4 5 5 7
5 5 2 2 8 2 2 1 0 2 2 3 4 5 3 2 3 2 3 2 2 2 1 2 3 4 8 12 10 12 11 10 11 13 11 11 9 6 7 6 6 6 7 7
3 5 4 2 1 1 3 3 2 2 3 5 4 4 5 4 4 2 1 1 1 2 5 3 4 7 13 12 5 10 9 11 12 12 14 12 10 6 6 5 6 6 6 7
0 1 2 3 3 5 5 7 5 4 2 2 3 2 3 2 1 2 1 4 3 3 4 4 4 7 9 9 9 16 7 7 8 9 10 14 12 13 11 9 7 6 6 4
4 6 9 7 6 7 5 10 7 7 5 6 2 1 1 1 1 2 3 4 3 5 6 10 10 13 11 10 9 12 13 12 12 15 14 11 9 7 9 10 11 10 10 10
5 6 8 6 6 7 9 6 8 12 9 3 2 2 3 4 5 5 5 6 6 6 6 7 9 10 7 9 11 13 14 15 15 14 14 13 14 14 13 10 10 7 8 9
5 7 6 9 7 13 15 12 11 12 11 3 4 6 6 9 6 8 8 4 6 6 6 9 8 11 12 11 14 14 16 17 16 15 15 16 16 14 12 16 12 13 14 13
6 5 4 4 3 6 8 11 10 8 9 8 4 8 8 4 7 8 8 6 6 8 8 6 9 9 9 9 13 13 15 16 16 16 15 13 13 16 14 13 10 9 12 14
Wind_Direction
327 325 324 328 330 330 33 20 340 294 11 47 1 355 315 261 283 309 284 273 276 304 16 317 277 237 305 21 353 12 335 254 236 228 220 193 212 214 193 181 229 241 229 233
318 318 323 324 328 345 358 330 264 307 59 57 355 326 325 348 20 331 351 335 37 22 358 328 53 327 57 14 16 9 340 301 220 325 337 248 208 200 205 207 130 228 199 247
326 321 322 323 323 344 85 12 332 322 27 160 8 322 345 334 325 309 349 300 51 17 13 37 316 312 332 354 339 3 9 284 246 249 276 181 208 214 212 197 223 216 232 209
338 332 332 327 325 337 95 66 261 232 309 346 320 315 293 342 360 333 322 6 43 70 311 286 256 337 320 346 10 14 66 282 282 285 294 287 262 226 216 211 219 202 223 205
340 341 342 333 331 116 141 274 284 346 268 270 306 303 354 19 343 287 352 341 309 268 201 250 290 290 258 267 323 1 2 279 329 283 263 254 260 257 233 217 218 230 195 228
342 343 340 340 344 130 210 225 235 249 285 268 280 250 350 329 315 276 194 302 311 298 265 254 242 225 241 248 249 292 292 269 340 269 306 319 255 230 244 247 204 201 207 201
344 338 334 335 324 180 181 227 155 235 278 258 284 282 308 298 294 289 295 293 284 277 302 286 279 234 229 240 234 208 208 170 255 267 314 221 281 195 220 230 229 202 149 189
337 338 337 338 326 338 163 196 189 221 265 258 273 283 285 299 291 281 267 278 265 301 309 328 313 300 241 239 226 208 203 182 243 233 242 289 306 1 236 183 230 208 188 201
328 328 328 329 332 341 125 218 196 240 238 230 258 310 296 286 278 292 273 319 301 281 217 239 238 260 292 273 274 208 192 205 202 184 230 246 101 328 322 312 224 201 183 199
317 316 318 319 318 313 163 252 183 242 267 250 243 221 256 243 267 270 291 287 312 41 217 232 217 235 261 265 266 162 171 191 217 247 254 280 349 331 315 163 242 307 187 200
305 305 307 306 306 307 228 248 189 172 257 263 242 240 249 244 219 228 296 341 318 352 237 277 333 245 250 286 264 294 193 162 180 231 220 255 7 10 8 306 300 292 262 189
296 297 299 295 294 292 297 260 236 170 241 258 275 247 236 228 229 239 206 242 350 255 136 217 319 289 267 302 277 309 233 186 177 203 228 151 165 244 302 314 294 286 284 136
291 292 292 294 287 282 258 222 220 200 267 277 248 239 240 232 229 221 235 238 213 223 211 200 219 240 266 263 258 299 282 195 183 259 222 233 41 5 349 332 309 298 325 19
296 291 290 290 287 280 264 193 178 189 279 274 272 300 267 206 197 201 213 225 312 199 205 235 234 232 229 250 268 276 260 273 216 225 274 269 52 17 342 319 311 23 38 37
301 299 294 289 286 281 280 200 208 190 177 283 294 298 277 279 196 217 206 209 220 231 258 232 224 225 247 269 254 237 229 237 210 218 185 127 81 11 327 309 312 46 54 41
308 303 298 295 286 283 134 319 209 190 180 282 300 296 289 298 190 214 205 204 205 210 198 233 224 171 197 244 265 291 282 255 216 225 197 110 107 31 310 277 344 61 64 58
309 308 300 274 253 178 171 206 173 140 140 239 288 283 277 293 252 241 155 176 194 177 216 236 223 234 216 233 241 239 235 229 302 165 130 94 134 148 300 338 17 66 63 58
313 315 305 255 213 180 231 213 171 135 140 194 264 274 309 32 307 356 184 175 187 220 217 238 230 266 224 252 266 300 295 288 238 218 321 109 100 78 1 306 18 64 62 56
317 324 105 100 103 197 251 124 97 90 164 207 219 265 284 347 340 22 315 25 228 265 256 257 292 313 241 272 311 290 271 229 148 117 111 94 98 88 88 22 3 59 44 57
316 105 57 57 196 133 123 150 101 42 31 78 244 277 264 309 253 277 280 208 247 242 292 321 305 262 277 312 325 329 55 104 132 114 102 99 77 80 65 52 21 33 30 26
16 6 11 259 159 221 217 98 11 135 241 208 232 214 252 206 242 215 220 342 353 299 338 340 330 307 323 331 2 3 26 61 88 100 102 87 92 88 79 49 19 31 41 33
293 292 296 291 302 14 336 296 133 239 263 194 209 209 204 252 230 11 42 283 252 337 333 355 17 324 318 314 316 332 9 6 40 60 73 69 64 64 86 73 45 32 45 41
114 227 301 10 352 10 17 337 301 305 248 196 211 227 223 212 132 171 330 19 21 329 19 8 252 277 303 334 0 52 42 39 56 67 68 83 62 60 57 57 33 20 45 34
47 15 346 27 352 1 337 322 328 317 308 317 218 149 260 239 26 61 30 15 351 30 14 20 15 12 13 28 42 50 42 38 61 84 90 86 85 75 60 56 57 53 47 37
43 36 15 357 324 316 342 334 357 355 328 348 2 30 54 6 50 21 15 24 19 353 20 13 359 343 355 22 48 51 58 53 55 58 61 57 52 51 46 25 47 22 46 58
48 42 4 336 358 1 5 358 2 353 341 2 28 30 23 26 21 6 28 30 12 1 357 355 4 359 2 24 50 53 56 56 54 50 52 50 51 49 45 49 49 55 56 54
36 350 337 312 298 340 355 8 353 332 2 10 44 41 22 15 15 6 358 21 358 330 341 351 354 1 15 32 47 46 54 47 41 48 49 49 49 51 42 41 20 34 44 51